User: anonymous   Login
Location: Banff
(51.1667°N, 115.5667°W)
Time: 23:04:57
(UTC+00:00)
Language:

SR - Orbit

View from above orbital plane
View from above orbital plane
View from above satellite
View from above satellite

Ground track
Ground track

The orbit data is extracted from the following two-line orbital elements,

1 00046U 60007B   21210.53109877  .00000101  00000-0  42884-4 0  9991
2 00046  66.6908  26.4653 0211431 189.7609 169.9365 14.49419839198105
Epoch (UTC): 29 July 2021 12:44:46
Eccentricity: 0.0211431
inclination: 66.6908°
perigee height: 577 km
apogee height: 878 km
right ascension of ascending node: 26.4653°
argument of perigee: 189.7609°
revolutions per day: 14.49419839
mean anomaly at epoch: 169.9365°
orbit number at epoch: 19810

The dashed part of the orbit path shows where the satellite is in the earth's shadow,  

DLR